Location: Helion Bumpstead
(52.0500°N, 0.4000°E)
Time: 07:28:04
(UTC+00:00)

Cosmos 1420 Rocket - Pass Details

Date: 15 November 2025
Orbit: 750 x 776 km, 74.0° (Epoch: 14 December)

Event Time Altitude Azimuth Distance (km) Brightness Sun altitude
Exits shadow 04:38:07 33° 197° (SSW) 1,277 4.9 -24.4°
Maximum altitude 04:40:32 83° 113° (ESE) 788 4.0 -24.1°
Drops below altitude 10° 04:45:52 10° 27° (NNE) 2,338 6.8 -23.2°
Sets 04:48:15 0° 26° (NNE) 3,270 7.6 -22.9°
